JBU201 KFLL-KLAX

Flight info

Callsign JBU201
Flight time 5h 36m
Altitude 34000
Route HROCK2 SMELZ Q116 JAWJA DCT CABLO DCT MERDN DCT TXK DCT ADM DCT LTS DCT TCC DCT ACH DCT ABQ DCT KA30Q DCT HIPPI DCT GABBL HLYWD1
Aircraft A21N/M-VGDW/C

Departure

Time 2026-04-25 17:17
Airport Fort Lauderdale Hollywood International Airport (KFLL)

Arrival

Time 2026-04-25 22:53
Airport Los Angeles International Airport (KLAX)
Time Latitude Longitude Altitude Speed Heading
2026-04-25 16:44 26.07154 -80.14647 21 ft 0 kts 179°
2026-04-25 17:06 26.07155 -80.14647 19 ft 0 kts 179°
2026-04-25 17:06 26.07156 -80.14647 19 ft 3 kts 179°
2026-04-25 17:06 26.07182 -80.14648 20 ft 4 kts 180°
2026-04-25 17:06 26.07197 -80.14646 19 ft 2 kts 206°
2026-04-25 17:07 26.07204 -80.14637 19 ft 2 kts 263°
2026-04-25 17:07 26.07203 -80.14639 22 ft 3 kts 261°
2026-04-25 17:07 26.07202 -80.14658 20 ft 2 kts 274°
2026-04-25 17:07 26.07203 -80.14667 22 ft 0 kts 279°
2026-04-25 17:10 26.07206 -80.14680 19 ft 5 kts 284°
2026-04-25 17:11 26.07222 -80.14728 19 ft 7 kts 295°
2026-04-25 17:11 26.07247 -80.14782 19 ft 10 kts 297°
2026-04-25 17:11 26.07291 -80.14847 19 ft 11 kts 335°
2026-04-25 17:11 26.07365 -80.14879 19 ft 13 kts 300°
2026-04-25 17:12 26.07424 -80.14973 19 ft 14 kts 315°
2026-04-25 17:12 26.07503 -80.15060 19 ft 15 kts 315°
2026-04-25 17:12 26.07561 -80.15154 19 ft 16 kts 276°
2026-04-25 17:12 26.07563 -80.15291 19 ft 19 kts 270°
2026-04-25 17:13 26.07564 -80.15434 18 ft 18 kts 270°
2026-04-25 17:13 26.07565 -80.15526 19 ft 18 kts 270°
2026-04-25 17:13 26.07565 -80.15701 19 ft 17 kts 270°
2026-04-25 17:13 26.07566 -80.15827 19 ft 16 kts 270°
2026-04-25 17:14 26.07567 -80.15952 19 ft 16 kts 270°
2026-04-25 17:14 26.07568 -80.16075 20 ft 16 kts 270°
2026-04-25 17:14 26.07568 -80.16211 20 ft 18 kts 270°
2026-04-25 17:14 26.07569 -80.16357 20 ft 19 kts 270°
2026-04-25 17:15 26.07570 -80.16501 20 ft 18 kts 270°
2026-04-25 17:15 26.07584 -80.16628 19 ft 14 kts 310°
2026-04-25 17:15 26.07666 -80.16640 21 ft 11 kts 13°
2026-04-25 17:15 26.07696 -80.16578 21 ft 11 kts 91°
2026-04-25 17:16 26.07694 -80.16314 24 ft 60 kts 90°
2026-04-25 17:16 26.07690 -80.15643 19 ft 114 kts 90°
2026-04-25 17:16 26.07684 -80.14548 25 ft 165 kts 90°
2026-04-25 17:16 26.07677 -80.13261 451 ft 164 kts 91°
2026-04-25 17:17 26.07665 -80.12001 954 ft 164 kts 90°
2026-04-25 17:17 26.07701 -80.10722 1434 ft 166 kts 86°
2026-04-25 17:17 26.07918 -80.09440 1856 ft 176 kts 73°
2026-04-25 17:17 26.08420 -80.08122 2072 ft 195 kts 60°
2026-04-25 17:18 26.09406 -80.07000 2253 ft 215 kts 32°
2026-04-25 17:18 26.10831 -80.06294 2481 ft 234 kts 22°
2026-04-25 17:18 26.12422 -80.05678 2769 ft 251 kts 20°
2026-04-25 17:18 26.14122 -80.05059 3213 ft 262 kts 15°
2026-04-25 17:19 26.15949 -80.04889 3825 ft 267 kts 352°
2026-04-25 17:19 26.17763 -80.05397 4491 ft 271 kts 343°
2026-04-25 17:19 26.19553 -80.06093 5141 ft 273 kts 341°
2026-04-25 17:19 26.21299 -80.06941 5801 ft 275 kts 328°
2026-04-25 17:20 26.22688 -80.08395 6468 ft 275 kts 301°
2026-04-25 17:20 26.23533 -80.10281 7218 ft 272 kts 292°
2026-04-25 17:20 26.24224 -80.12225 7876 ft 275 kts 291°
2026-04-25 17:20 26.24907 -80.14219 8556 ft 276 kts 291°
2026-04-25 17:21 26.25556 -80.16242 9269 ft 278 kts 288°
2026-04-25 17:21 26.26120 -80.18307 10004 ft 278 kts 287°
2026-04-25 17:21 26.26673 -80.20409 10445 ft 290 kts 287°
2026-04-25 17:21 26.27259 -80.22632 10711 ft 308 kts 287°
2026-04-25 17:22 26.27881 -80.24982 11000 ft 324 kts 287°
2026-04-25 17:22 26.28310 -80.26601 11167 ft 334 kts 287°
2026-04-25 17:22 26.29215 -80.30013 11477 ft 352 kts 287°
2026-04-25 17:22 26.29922 -80.32680 11702 ft 364 kts 287°
2026-04-25 17:23 26.30649 -80.35419 11978 ft 372 kts 287°
2026-04-25 17:23 26.31387 -80.38204 12359 ft 376 kts 287°
2026-04-25 17:23 26.32130 -80.41008 12805 ft 378 kts 287°
2026-04-25 17:23 26.32876 -80.43827 13243 ft 380 kts 287°
2026-04-25 17:24 26.33617 -80.46631 13677 ft 382 kts 287°
2026-04-25 17:24 26.34369 -80.49477 14061 ft 384 kts 287°
2026-04-25 17:24 26.35126 -80.52345 14425 ft 386 kts 287°
2026-04-25 17:24 26.35885 -80.55227 14800 ft 388 kts 287°
2026-04-25 17:25 26.36650 -80.58132 15206 ft 390 kts 287°
2026-04-25 17:25 26.37415 -80.61035 15626 ft 391 kts 287°
2026-04-25 17:25 26.38183 -80.63957 16036 ft 393 kts 287°
2026-04-25 17:25 26.38953 -80.66886 16439 ft 394 kts 287°
2026-04-25 17:26 26.39780 -80.69809 16826 ft 395 kts 291°
2026-04-25 17:26 26.40991 -80.72521 17179 ft 397 kts 303°
2026-04-25 17:26 26.42697 -80.74946 17536 ft 399 kts 311°
2026-04-25 17:26 26.44570 -80.77238 17890 ft 400 kts 312°
2026-04-25 17:27 26.46477 -80.79521 18239 ft 402 kts 312°
2026-04-25 17:27 26.48389 -80.81811 18528 ft 404 kts 312°
2026-04-25 17:27 26.49038 -80.82590 18629 ft 405 kts 312°
2026-04-25 17:28 26.53926 -80.88487 19349 ft 409 kts 312°
2026-04-25 17:28 26.55861 -80.90828 19638 ft 411 kts 312°
2026-04-25 17:28 26.57803 -80.93181 19919 ft 413 kts 312°
2026-04-25 17:28 26.59755 -80.95547 20229 ft 415 kts 312°
2026-04-25 17:29 26.61714 -80.97923 20552 ft 417 kts 312°
2026-04-25 17:29 26.63684 -81.00313 20866 ft 419 kts 312°
2026-04-25 17:29 26.65663 -81.02717 21173 ft 421 kts 312°
2026-04-25 17:29 26.67646 -81.05127 21482 ft 423 kts 312°
2026-04-25 17:30 26.69643 -81.07555 21790 ft 425 kts 312°
2026-04-25 17:30 26.71646 -81.09993 22105 ft 427 kts 312°
2026-04-25 17:30 26.73662 -81.12447 22408 ft 429 kts 312°
2026-04-25 17:30 26.75688 -81.14914 22711 ft 431 kts 312°
2026-04-25 17:31 26.77721 -81.17392 23025 ft 433 kts 312°
2026-04-25 17:31 26.79735 -81.19848 23308 ft 435 kts 312°
2026-04-25 17:31 26.81784 -81.22348 23570 ft 437 kts 312°
2026-04-25 17:31 26.83842 -81.24860 23807 ft 439 kts 313°
2026-04-25 17:32 26.85907 -81.27383 24054 ft 440 kts 313°
2026-04-25 17:32 26.87983 -81.29920 24279 ft 442 kts 313°
2026-04-25 17:32 26.90072 -81.32474 24472 ft 444 kts 313°
2026-04-25 17:32 26.92161 -81.35030 24722 ft 445 kts 313°
2026-04-25 17:33 26.94260 -81.37600 24960 ft 447 kts 313°
2026-04-25 17:33 26.96360 -81.40174 25177 ft 448 kts 313°
2026-04-25 17:33 26.98467 -81.42756 25410 ft 449 kts 313°
2026-04-25 17:33 27.00578 -81.45346 25732 ft 448 kts 313°
2026-04-25 17:34 27.02674 -81.47917 26035 ft 447 kts 313°
2026-04-25 17:34 27.04846 -81.50340 26317 ft 446 kts 319°
2026-04-25 17:34 27.07313 -81.52453 26618 ft 445 kts 325°
2026-04-25 17:34 27.09908 -81.54373 26919 ft 445 kts 327°
2026-04-25 17:35 27.12515 -81.56247 27227 ft 444 kts 327°
2026-04-25 17:35 27.15112 -81.58111 27525 ft 443 kts 327°
2026-04-25 17:35 27.17704 -81.59974 27816 ft 442 kts 327°
2026-04-25 17:35 27.20290 -81.61837 28102 ft 441 kts 327°
2026-04-25 17:36 27.22872 -81.63700 28386 ft 441 kts 327°
2026-04-25 17:36 27.25423 -81.65543 28577 ft 442 kts 327°
2026-04-25 17:36 27.28003 -81.67409 28848 ft 440 kts 327°
2026-04-25 17:36 27.30572 -81.69268 29198 ft 438 kts 327°
2026-04-25 17:37 27.33134 -81.71123 29473 ft 437 kts 327°
2026-04-25 17:37 27.35696 -81.72979 29734 ft 437 kts 327°
2026-04-25 17:37 27.38252 -81.74833 29998 ft 436 kts 327°
2026-04-25 17:37 27.40799 -81.76681 30213 ft 436 kts 327°
2026-04-25 17:38 27.43347 -81.78530 30424 ft 435 kts 327°
2026-04-25 17:38 27.45045 -81.79725 30573 ft 435 kts 330°
2026-04-25 17:38 27.48670 -81.81754 30852 ft 434 kts 335°
2026-04-25 17:38 27.51435 -81.83117 31074 ft 433 kts 336°
2026-04-25 17:39 27.54200 -81.84458 31308 ft 433 kts 336°
2026-04-25 17:39 27.56934 -81.85785 31522 ft 432 kts 336°
2026-04-25 17:39 27.59691 -81.87125 31737 ft 431 kts 336°
2026-04-25 17:39 27.62442 -81.88464 31947 ft 430 kts 336°
2026-04-25 17:40 27.65190 -81.89804 32138 ft 430 kts 336°
2026-04-25 17:40 27.67938 -81.91145 32333 ft 429 kts 336°
2026-04-25 17:40 27.70674 -81.92481 32520 ft 429 kts 336°
2026-04-25 17:40 27.73414 -81.93820 32700 ft 428 kts 336°
2026-04-25 17:41 27.76145 -81.95156 32888 ft 428 kts 336°
2026-04-25 17:41 27.78849 -81.96479 33061 ft 427 kts 336°
2026-04-25 17:41 27.81579 -81.97815 33218 ft 427 kts 336°
2026-04-25 17:41 27.84300 -81.99148 33403 ft 426 kts 336°
2026-04-25 17:42 27.87022 -82.00482 33510 ft 427 kts 336°
2026-04-25 17:42 27.89753 -82.01821 33643 ft 427 kts 336°
2026-04-25 17:42 27.92476 -82.03157 33795 ft 426 kts 336°
2026-04-25 17:42 27.95196 -82.04493 33939 ft 426 kts 336°
2026-04-25 17:43 28.00645 -82.07170 33973 ft 427 kts 336°
2026-04-25 17:43 28.06101 -82.09857 33946 ft 427 kts 335°
2026-04-25 17:44 28.11233 -82.13201 33945 ft 426 kts 326°
2026-04-25 17:44 28.16105 -82.17037 33973 ft 427 kts 325°
2026-04-25 17:45 28.19305 -82.19633 33971 ft 428 kts 324°
2026-04-25 17:45 28.25771 -82.24861 33969 ft 428 kts 325°
2026-04-25 17:46 28.30635 -82.28762 33968 ft 428 kts 325°
2026-04-25 17:46 28.35517 -82.32669 33972 ft 429 kts 325°
2026-04-25 17:47 28.40395 -82.36579 33979 ft 429 kts 325°
2026-04-25 17:47 28.45270 -82.40493 33975 ft 429 kts 325°
2026-04-25 17:48 28.52560 -82.46353 33982 ft 429 kts 325°
2026-04-25 17:49 28.57433 -82.50275 33942 ft 429 kts 325°
2026-04-25 17:49 28.62303 -82.54200 33945 ft 428 kts 325°
2026-04-25 17:50 28.67168 -82.58125 33951 ft 428 kts 325°
2026-04-25 17:50 28.72028 -82.62050 33956 ft 428 kts 325°
2026-04-25 17:51 28.76888 -82.65981 33959 ft 428 kts 325°
2026-04-25 17:51 28.81707 -82.69883 33955 ft 428 kts 325°
2026-04-25 17:52 28.86565 -82.73820 33966 ft 427 kts 325°
2026-04-25 17:52 28.91423 -82.77762 33967 ft 427 kts 325°
2026-04-25 17:53 28.96245 -82.81680 33961 ft 428 kts 325°
2026-04-25 17:53 29.01106 -82.85635 33964 ft 429 kts 325°
2026-04-25 17:54 29.05972 -82.89597 33968 ft 429 kts 325°
2026-04-25 17:54 29.10840 -82.93567 33971 ft 429 kts 324°
2026-04-25 17:55 29.15670 -82.97509 33965 ft 429 kts 324°
2026-04-25 17:55 29.20535 -83.01486 33960 ft 429 kts 324°
2026-04-25 17:56 29.25393 -83.05461 33959 ft 429 kts 324°
2026-04-25 17:56 29.30252 -83.09443 33960 ft 429 kts 324°
2026-04-25 17:57 29.35117 -83.13433 33958 ft 429 kts 324°
2026-04-25 17:57 29.39948 -83.17400 33963 ft 430 kts 324°
2026-04-25 17:58 29.44820 -83.21406 33960 ft 431 kts 324°
2026-04-25 17:58 29.49695 -83.25420 33956 ft 431 kts 324°
2026-04-25 17:59 29.54577 -83.29443 33955 ft 431 kts 324°
2026-04-25 17:59 29.59450 -83.33465 33959 ft 431 kts 324°
2026-04-25 18:00 29.64295 -83.37468 33960 ft 431 kts 324°
2026-04-25 18:00 29.69166 -83.41497 33958 ft 430 kts 323°
2026-04-25 18:01 29.74022 -83.45519 33956 ft 430 kts 323°
2026-04-25 18:01 29.78883 -83.49550 33962 ft 430 kts 323°
2026-04-25 18:02 29.83712 -83.53560 33953 ft 430 kts 323°
2026-04-25 18:02 29.88586 -83.57610 33974 ft 431 kts 323°
2026-04-25 18:03 29.93418 -83.61629 33978 ft 431 kts 323°
2026-04-25 18:03 29.98281 -83.65678 33984 ft 431 kts 322°
2026-04-25 18:04 30.03141 -83.69730 33978 ft 431 kts 322°
2026-04-25 18:04 30.07998 -83.73785 33976 ft 431 kts 322°
2026-04-25 18:05 30.12866 -83.77853 33970 ft 431 kts 322°
2026-04-25 18:05 30.17437 -83.82298 33964 ft 428 kts 310°
2026-04-25 18:06 30.21045 -83.87708 33958 ft 428 kts 304°
2026-04-25 18:06 30.24431 -83.93378 33946 ft 428 kts 303°
2026-04-25 18:07 30.27780 -83.99108 33947 ft 429 kts 303°
2026-04-25 18:07 30.31137 -84.04826 33943 ft 429 kts 303°
2026-04-25 18:08 30.34503 -84.10533 33939 ft 429 kts 303°
2026-04-25 18:08 30.37301 -84.15275 33936 ft 429 kts 303°
2026-04-25 18:09 30.41217 -84.21918 33938 ft 429 kts 303°
2026-04-25 18:09 30.44013 -84.26670 33933 ft 429 kts 303°
2026-04-25 18:10 30.47374 -84.32389 33933 ft 429 kts 303°
2026-04-25 18:10 30.50737 -84.38122 33924 ft 428 kts 303°
2026-04-25 18:11 30.54092 -84.43848 33925 ft 428 kts 303°
2026-04-25 18:11 30.57419 -84.49537 33926 ft 429 kts 303°
2026-04-25 18:12 30.60768 -84.55268 33922 ft 429 kts 303°
2026-04-25 18:12 30.64113 -84.61003 33925 ft 428 kts 303°
2026-04-25 18:13 30.67456 -84.66741 33929 ft 428 kts 303°
2026-04-25 18:13 30.70772 -84.72441 33922 ft 427 kts 303°
2026-04-25 18:14 30.75760 -84.81032 33923 ft 427 kts 303°
2026-04-25 18:14 30.78735 -84.86999 33922 ft 426 kts 296°
2026-04-25 18:15 30.81414 -84.93149 33920 ft 426 kts 295°
2026-04-25 18:15 30.84020 -84.99301 33918 ft 426 kts 295°
2026-04-25 18:16 30.86639 -85.05498 33916 ft 426 kts 295°
2026-04-25 18:17 30.90577 -85.14798 33914 ft 428 kts 295°
2026-04-25 18:17 30.93209 -85.21017 33915 ft 428 kts 295°
2026-04-25 18:18 30.95839 -85.27241 33913 ft 428 kts 295°
2026-04-25 18:18 30.98464 -85.33463 33886 ft 428 kts 295°
2026-04-25 18:19 31.01088 -85.39697 33910 ft 428 kts 295°
2026-04-25 18:19 31.03708 -85.45929 33890 ft 429 kts 294°
2026-04-25 18:20 31.06339 -85.52200 33896 ft 431 kts 294°
2026-04-25 18:20 31.08959 -85.58455 33870 ft 431 kts 294°
2026-04-25 18:21 31.11593 -85.64754 33878 ft 431 kts 294°
2026-04-25 18:21 31.14223 -85.71053 33879 ft 431 kts 294°
2026-04-25 18:22 31.16833 -85.77315 33875 ft 431 kts 294°
2026-04-25 18:22 31.19457 -85.83621 33887 ft 431 kts 294°
2026-04-25 18:23 31.22075 -85.89925 33889 ft 431 kts 294°
2026-04-25 18:23 31.24689 -85.96229 33889 ft 431 kts 294°
2026-04-25 18:24 31.27297 -86.02530 33887 ft 431 kts 294°
2026-04-25 18:24 31.29907 -86.08848 33889 ft 431 kts 294°
2026-04-25 18:25 31.32514 -86.15168 33898 ft 431 kts 294°
2026-04-25 18:25 31.35101 -86.21451 33890 ft 430 kts 293°
2026-04-25 18:26 31.37696 -86.27763 33888 ft 430 kts 293°
2026-04-25 18:26 31.40285 -86.34073 33863 ft 430 kts 293°
2026-04-25 18:27 31.42869 -86.40383 33861 ft 430 kts 293°
2026-04-25 18:27 31.45440 -86.46671 33862 ft 430 kts 293°
2026-04-25 18:28 31.48021 -86.52993 33838 ft 430 kts 293°
2026-04-25 18:28 31.50583 -86.59281 33823 ft 426 kts 292°
2026-04-25 18:29 31.54399 -86.68666 33837 ft 425 kts 292°
2026-04-25 18:30 31.59452 -86.81136 33842 ft 424 kts 292°
2026-04-25 18:30 31.61984 -86.87398 33848 ft 424 kts 292°
2026-04-25 18:31 31.64515 -86.93669 33815 ft 424 kts 292°
2026-04-25 18:31 31.67037 -86.99931 33827 ft 424 kts 292°
2026-04-25 18:32 31.69545 -87.06167 33826 ft 424 kts 292°
2026-04-25 18:32 31.72060 -87.12431 33837 ft 424 kts 292°
2026-04-25 18:33 31.74578 -87.18714 33837 ft 424 kts 292°
2026-04-25 18:33 31.77090 -87.24993 33862 ft 424 kts 292°
2026-04-25 18:34 31.79595 -87.31265 33860 ft 423 kts 292°
2026-04-25 18:34 31.82088 -87.37520 33860 ft 421 kts 292°
2026-04-25 18:35 31.84571 -87.43760 33868 ft 420 kts 292°
2026-04-25 18:35 31.87041 -87.49979 33868 ft 420 kts 292°
2026-04-25 18:36 31.89491 -87.56159 33888 ft 420 kts 292°
2026-04-25 18:36 31.91956 -87.62387 33892 ft 420 kts 291°
2026-04-25 18:37 31.94422 -87.68627 33879 ft 419 kts 291°
2026-04-25 18:37 31.96867 -87.74826 33895 ft 417 kts 292°
2026-04-25 18:38 31.99306 -87.81017 33901 ft 415 kts 292°
2026-04-25 18:38 32.01729 -87.87183 33906 ft 414 kts 292°
2026-04-25 18:39 32.04136 -87.93318 33909 ft 414 kts 292°
2026-04-25 18:39 32.06553 -87.99491 33926 ft 413 kts 291°
2026-04-25 18:40 32.08949 -88.05617 33918 ft 409 kts 291°
2026-04-25 18:40 32.11328 -88.11713 33921 ft 408 kts 292°
2026-04-25 18:41 32.13676 -88.17739 33916 ft 406 kts 292°
2026-04-25 18:41 32.16031 -88.23795 33920 ft 406 kts 292°
2026-04-25 18:42 32.17605 -88.27849 33923 ft 406 kts 292°
2026-04-25 18:42 32.20732 -88.35916 33924 ft 406 kts 292°
2026-04-25 18:43 32.23080 -88.41986 33927 ft 406 kts 292°
2026-04-25 18:43 32.25423 -88.48051 33933 ft 406 kts 292°
2026-04-25 18:44 32.27761 -88.54114 33933 ft 405 kts 292°
2026-04-25 18:44 32.30078 -88.60135 33929 ft 404 kts 292°
2026-04-25 18:45 32.32405 -88.66193 33932 ft 404 kts 292°
2026-04-25 18:45 32.34730 -88.72254 33929 ft 404 kts 292°
2026-04-25 18:46 32.37047 -88.78318 33922 ft 404 kts 290°
2026-04-25 18:46 32.38833 -88.84548 33924 ft 402 kts 285°
2026-04-25 18:47 32.40389 -88.90910 33923 ft 402 kts 285°
2026-04-25 18:47 32.41895 -88.97295 33916 ft 402 kts 284°
2026-04-25 18:48 32.43401 -89.03692 33919 ft 402 kts 285°
2026-04-25 18:48 32.44900 -89.10035 33919 ft 402 kts 285°
2026-04-25 18:49 32.46410 -89.16423 33919 ft 403 kts 285°
2026-04-25 18:49 32.47918 -89.22815 33919 ft 403 kts 284°
2026-04-25 18:50 32.49418 -89.29194 33916 ft 401 kts 285°
2026-04-25 18:50 32.50911 -89.35557 33922 ft 400 kts 285°
2026-04-25 18:51 32.51898 -89.39771 33916 ft 400 kts 285°
2026-04-25 18:51 32.53885 -89.48279 33919 ft 400 kts 285°
2026-04-25 18:52 32.55357 -89.54599 33917 ft 400 kts 285°
2026-04-25 18:52 32.56838 -89.60973 33919 ft 400 kts 285°
2026-04-25 18:53 32.58313 -89.67337 33912 ft 400 kts 285°
2026-04-25 18:53 32.59786 -89.73710 33897 ft 400 kts 285°
2026-04-25 18:54 32.61981 -89.83239 33923 ft 400 kts 285°
2026-04-25 18:55 32.63448 -89.89623 33906 ft 401 kts 285°
2026-04-25 18:55 32.64915 -89.96026 33905 ft 402 kts 285°
2026-04-25 18:56 32.66375 -90.02417 33905 ft 400 kts 285°
2026-04-25 18:56 32.67817 -90.08744 33905 ft 396 kts 285°
2026-04-25 18:57 32.69249 -90.15044 33907 ft 395 kts 285°
2026-04-25 18:57 32.70670 -90.21307 33906 ft 395 kts 285°
2026-04-25 18:58 32.72099 -90.27623 33904 ft 395 kts 285°
2026-04-25 18:58 32.73992 -90.36016 33907 ft 395 kts 285°
2026-04-25 18:59 32.77023 -90.49519 33914 ft 388 kts 286°
2026-04-25 19:00 32.78866 -90.57760 33915 ft 387 kts 286°
2026-04-25 19:01 32.80934 -90.67038 33924 ft 387 kts 286°
2026-04-25 19:01 32.82308 -90.73223 33921 ft 387 kts 286°
2026-04-25 19:02 32.84358 -90.82485 33927 ft 383 kts 286°
2026-04-25 19:03 32.86156 -90.90638 33930 ft 382 kts 286°
2026-04-25 19:03 32.87719 -90.97745 33944 ft 382 kts 286°
2026-04-25 19:04 32.89734 -91.06934 33954 ft 382 kts 285°
2026-04-25 19:05 32.92410 -91.19200 33955 ft 381 kts 285°
2026-04-25 19:06 32.93735 -91.25297 33953 ft 380 kts 285°
2026-04-25 19:06 32.95709 -91.34406 33945 ft 380 kts 285°
2026-04-25 19:07 32.97684 -91.43552 33937 ft 380 kts 285°
2026-04-25 19:08 32.99654 -91.52715 33937 ft 380 kts 285°
2026-04-25 19:09 33.02049 -91.63900 33931 ft 380 kts 285°
2026-04-25 19:10 33.04223 -91.74098 33927 ft 380 kts 285°
2026-04-25 19:10 33.05515 -91.80179 33929 ft 380 kts 285°
2026-04-25 19:11 33.06811 -91.86300 33927 ft 380 kts 285°
2026-04-25 19:11 33.08104 -91.92416 33925 ft 381 kts 285°
2026-04-25 19:12 33.09399 -91.98559 33929 ft 382 kts 285°
2026-04-25 19:12 33.10691 -92.04706 33925 ft 382 kts 285°
2026-04-25 19:13 33.11983 -92.10869 33925 ft 382 kts 285°
2026-04-25 19:13 33.13267 -92.17009 33924 ft 383 kts 285°
2026-04-25 19:14 33.14552 -92.23170 33926 ft 379 kts 285°
2026-04-25 19:14 33.15814 -92.29240 33906 ft 376 kts 285°
2026-04-25 19:15 33.17073 -92.35307 33919 ft 376 kts 284°
2026-04-25 19:15 33.18330 -92.41381 33912 ft 377 kts 284°
2026-04-25 19:16 33.19577 -92.47420 33912 ft 377 kts 284°
2026-04-25 19:16 33.20827 -92.53495 33913 ft 377 kts 284°
2026-04-25 19:17 33.22075 -92.59573 33910 ft 377 kts 284°
2026-04-25 19:17 33.23321 -92.65658 33914 ft 377 kts 284°
2026-04-25 19:18 33.24564 -92.71747 33913 ft 378 kts 284°
2026-04-25 19:18 33.25802 -92.77825 33913 ft 378 kts 284°
2026-04-25 19:19 33.27044 -92.83938 33897 ft 378 kts 284°
2026-04-25 19:19 33.28282 -92.90050 33898 ft 378 kts 284°
2026-04-25 19:20 33.29518 -92.96170 33900 ft 378 kts 284°
2026-04-25 19:20 33.30750 -93.02284 33900 ft 378 kts 284°
2026-04-25 19:21 33.31980 -93.08406 33886 ft 379 kts 284°
2026-04-25 19:21 33.33822 -93.17601 33890 ft 381 kts 284°
2026-04-25 19:22 33.35051 -93.23762 33889 ft 381 kts 284°
2026-04-25 19:23 33.36890 -93.33007 33894 ft 381 kts 284°
2026-04-25 19:23 33.38720 -93.42250 33899 ft 380 kts 284°
2026-04-25 19:24 33.39929 -93.48374 33903 ft 380 kts 284°
2026-04-25 19:25 33.42354 -93.60711 33906 ft 380 kts 284°
2026-04-25 19:25 33.43561 -93.66882 33905 ft 380 kts 284°
2026-04-25 19:26 33.44757 -93.73008 33902 ft 380 kts 284°
2026-04-25 19:26 33.45958 -93.79180 33905 ft 380 kts 283°
2026-04-25 19:27 33.46954 -93.84312 33904 ft 380 kts 283°
2026-04-25 19:27 33.48349 -93.91517 33906 ft 379 kts 283°
2026-04-25 19:28 33.49539 -93.97685 33907 ft 379 kts 283°
2026-04-25 19:28 33.50724 -94.03842 33905 ft 379 kts 283°
2026-04-25 19:29 33.51984 -94.09980 33905 ft 379 kts 285°
2026-04-25 19:29 33.53431 -94.16059 33902 ft 379 kts 286°
2026-04-25 19:30 33.54905 -94.22092 33900 ft 378 kts 286°
2026-04-25 19:30 33.56364 -94.28142 33896 ft 377 kts 286°
2026-04-25 19:31 33.57804 -94.34186 33891 ft 377 kts 286°
2026-04-25 19:31 33.59238 -94.40240 33886 ft 377 kts 286°
2026-04-25 19:32 33.60668 -94.46291 33892 ft 377 kts 285°
2026-04-25 19:32 33.61616 -94.50311 33880 ft 378 kts 285°
2026-04-25 19:33 33.63519 -94.58394 33879 ft 378 kts 285°
2026-04-25 19:33 33.64934 -94.64425 33876 ft 373 kts 285°
2026-04-25 19:34 33.66340 -94.70428 33877 ft 372 kts 285°
2026-04-25 19:34 33.67730 -94.76377 33865 ft 372 kts 285°
2026-04-25 19:35 33.69129 -94.82376 33869 ft 372 kts 285°
2026-04-25 19:35 33.70519 -94.88357 33859 ft 372 kts 285°
2026-04-25 19:36 33.71909 -94.94349 33867 ft 372 kts 285°
2026-04-25 19:36 33.73299 -95.00355 33861 ft 375 kts 284°
2026-04-25 19:37 33.74696 -95.06403 33854 ft 376 kts 284°
2026-04-25 19:37 33.76092 -95.12468 33852 ft 376 kts 284°
2026-04-25 19:38 33.77479 -95.18506 33842 ft 376 kts 284°
2026-04-25 19:38 33.78870 -95.24575 33844 ft 376 kts 284°
2026-04-25 19:39 33.80257 -95.30641 33846 ft 376 kts 284°
2026-04-25 19:39 33.81641 -95.36712 33843 ft 376 kts 284°
2026-04-25 19:40 33.83019 -95.42766 33843 ft 375 kts 284°
2026-04-25 19:40 33.84381 -95.48772 33854 ft 374 kts 284°
2026-04-25 19:41 33.85748 -95.54809 33858 ft 374 kts 284°
2026-04-25 19:41 33.86661 -95.58852 33850 ft 374 kts 284°
2026-04-25 19:42 33.88472 -95.66888 33833 ft 374 kts 284°
2026-04-25 19:42 33.89829 -95.72932 33813 ft 374 kts 285°
2026-04-25 19:43 33.91181 -95.78961 33819 ft 373 kts 285°
2026-04-25 19:43 33.92528 -95.84987 33820 ft 373 kts 285°
2026-04-25 19:44 33.93872 -95.91011 33818 ft 373 kts 285°
2026-04-25 19:44 33.95205 -95.97007 33815 ft 373 kts 285°
2026-04-25 19:45 33.96544 -96.03037 33815 ft 372 kts 285°
2026-04-25 19:45 33.97879 -96.09073 33810 ft 373 kts 285°
2026-04-25 19:46 33.99217 -96.15132 33821 ft 375 kts 284°
2026-04-25 19:46 34.00558 -96.21221 33822 ft 376 kts 284°
2026-04-25 19:47 34.01670 -96.26283 33828 ft 376 kts 284°
2026-04-25 19:47 34.03222 -96.33363 33832 ft 376 kts 284°
2026-04-25 19:48 34.04553 -96.39453 33833 ft 376 kts 284°
2026-04-25 19:48 34.05668 -96.44570 33836 ft 376 kts 284°
2026-04-25 19:49 34.06772 -96.49645 33821 ft 376 kts 284°
2026-04-25 19:49 34.08307 -96.56716 33797 ft 374 kts 284°
2026-04-25 19:50 34.10277 -96.65829 33797 ft 374 kts 284°
2026-04-25 19:51 34.11586 -96.71902 33794 ft 374 kts 284°
2026-04-25 19:51 34.12892 -96.77977 33791 ft 374 kts 284°
2026-04-25 19:52 34.14197 -96.84060 33788 ft 374 kts 284°
2026-04-25 19:52 34.15490 -96.90108 33787 ft 374 kts 284°
2026-04-25 19:53 34.16789 -96.96196 33786 ft 374 kts 284°
2026-04-25 19:53 34.18086 -97.02294 33784 ft 375 kts 284°
2026-04-25 19:54 34.19381 -97.08397 33784 ft 374 kts 284°
2026-04-25 19:54 34.20675 -97.14509 33783 ft 375 kts 284°
2026-04-25 19:55 34.21986 -97.20560 33781 ft 375 kts 285°
2026-04-25 19:55 34.23348 -97.26637 33778 ft 374 kts 285°
2026-04-25 19:56 34.24713 -97.32714 33763 ft 374 kts 285°
2026-04-25 19:56 34.26074 -97.38806 33755 ft 376 kts 284°
2026-04-25 19:57 34.27440 -97.44960 33750 ft 381 kts 284°
2026-04-25 19:57 34.28814 -97.51162 33749 ft 381 kts 284°
2026-04-25 19:58 34.30174 -97.57320 33751 ft 381 kts 284°
2026-04-25 19:58 34.31532 -97.63485 33724 ft 375 kts 284°
2026-04-25 19:59 34.32863 -97.69540 33726 ft 371 kts 284°
2026-04-25 19:59 34.34185 -97.75573 33719 ft 371 kts 284°
2026-04-25 20:00 34.35505 -97.81613 33711 ft 371 kts 284°
2026-04-25 20:00 34.36823 -97.87655 33714 ft 371 kts 284°
2026-04-25 20:01 34.38784 -97.96676 33695 ft 371 kts 284°
2026-04-25 20:01 34.40094 -98.02722 33702 ft 370 kts 284°
2026-04-25 20:02 34.41400 -98.08765 33697 ft 370 kts 283°
2026-04-25 20:02 34.42691 -98.14756 33695 ft 370 kts 283°
2026-04-25 20:03 34.43989 -98.20792 33689 ft 370 kts 283°
2026-04-25 20:03 34.45284 -98.26831 33688 ft 370 kts 283°
2026-04-25 20:04 34.46574 -98.32863 33748 ft 369 kts 283°
2026-04-25 20:04 34.47859 -98.38884 33757 ft 369 kts 283°
2026-04-25 20:05 34.49132 -98.44872 33691 ft 370 kts 283°
2026-04-25 20:05 34.50415 -98.50917 33694 ft 370 kts 283°
2026-04-25 20:06 34.51694 -98.56961 33693 ft 370 kts 283°
2026-04-25 20:06 34.52973 -98.63011 33694 ft 370 kts 283°
2026-04-25 20:07 34.54245 -98.69058 33692 ft 370 kts 283°
2026-04-25 20:07 34.55514 -98.75103 33693 ft 370 kts 283°
2026-04-25 20:08 34.56784 -98.81166 33700 ft 371 kts 283°
2026-04-25 20:08 34.58044 -98.87197 33699 ft 371 kts 283°
2026-04-25 20:09 34.59310 -98.93272 33705 ft 371 kts 283°
2026-04-25 20:09 34.60573 -98.99355 33715 ft 371 kts 283°
2026-04-25 20:10 34.61832 -99.05432 33725 ft 371 kts 283°
2026-04-25 20:10 34.63089 -99.11512 33727 ft 371 kts 283°
2026-04-25 20:11 34.64343 -99.17598 33730 ft 371 kts 283°
2026-04-25 20:11 34.65584 -99.23638 33727 ft 371 kts 283°
2026-04-25 20:12 34.66722 -99.29750 33730 ft 370 kts 280°
2026-04-25 20:12 34.67315 -99.33879 33758 ft 370 kts 279°
2026-04-25 20:13 34.68390 -99.42103 33705 ft 370 kts 279°
2026-04-25 20:13 34.69211 -99.48278 33707 ft 370 kts 279°
2026-04-25 20:14 34.70050 -99.54460 33706 ft 371 kts 279°
2026-04-25 20:14 34.70887 -99.60610 33705 ft 371 kts 279°
2026-04-25 20:15 34.71726 -99.66796 33705 ft 371 kts 279°
2026-04-25 20:15 34.72562 -99.72988 33705 ft 371 kts 279°
2026-04-25 20:16 34.73393 -99.79178 33700 ft 371 kts 279°
2026-04-25 20:16 34.74223 -99.85380 33702 ft 371 kts 279°
2026-04-25 20:17 34.75049 -99.91581 33707 ft 371 kts 278°
2026-04-25 20:17 34.75872 -99.97782 33709 ft 371 kts 278°
2026-04-25 20:18 34.76687 -100.03947 33708 ft 371 kts 278°
2026-04-25 20:18 34.77504 -100.10146 33709 ft 371 kts 278°
2026-04-25 20:19 34.78318 -100.16356 33708 ft 372 kts 278°
2026-04-25 20:19 34.79129 -100.22567 33703 ft 372 kts 278°
2026-04-25 20:20 34.79935 -100.28768 33705 ft 373 kts 278°
2026-04-25 20:20 34.80745 -100.35018 33736 ft 373 kts 278°
2026-04-25 20:21 34.81550 -100.41263 33708 ft 373 kts 278°
2026-04-25 20:21 34.82346 -100.47457 33707 ft 373 kts 278°
2026-04-25 20:22 34.82880 -100.51627 33706 ft 373 kts 278°
2026-04-25 20:22 34.83939 -100.59934 33711 ft 372 kts 278°
2026-04-25 20:23 34.84729 -100.66163 33708 ft 372 kts 278°
2026-04-25 20:23 34.85511 -100.72351 33705 ft 372 kts 278°
2026-04-25 20:24 34.86294 -100.78577 33702 ft 372 kts 278°
2026-04-25 20:24 34.87075 -100.84812 33711 ft 372 kts 278°
2026-04-25 20:25 34.87852 -100.91042 33708 ft 372 kts 278°
2026-04-25 20:25 34.88620 -100.97228 33709 ft 372 kts 278°
2026-04-25 20:26 34.89391 -101.03458 33706 ft 372 kts 278°
2026-04-25 20:26 34.90158 -101.09694 33704 ft 372 kts 278°
2026-04-25 20:27 34.90924 -101.15937 33705 ft 372 kts 278°
2026-04-25 20:27 34.91679 -101.22127 33706 ft 372 kts 278°
2026-04-25 20:28 34.92437 -101.28361 33716 ft 372 kts 278°
2026-04-25 20:28 34.93192 -101.34601 33711 ft 371 kts 278°
2026-04-25 20:29 34.93941 -101.40821 33710 ft 371 kts 278°
2026-04-25 20:29 34.94687 -101.47036 33706 ft 371 kts 278°
2026-04-25 20:30 34.95430 -101.53257 33723 ft 370 kts 277°
2026-04-25 20:30 34.96169 -101.59478 33711 ft 371 kts 277°
2026-04-25 20:31 34.96901 -101.65664 33708 ft 371 kts 277°
2026-04-25 20:31 34.97634 -101.71888 33707 ft 371 kts 277°
2026-04-25 20:32 34.98367 -101.78138 33713 ft 372 kts 277°
2026-04-25 20:32 34.99096 -101.84387 33713 ft 372 kts 277°
2026-04-25 20:33 34.99823 -101.90640 33718 ft 372 kts 277°
2026-04-25 20:33 35.00303 -101.94782 33716 ft 372 kts 277°
2026-04-25 20:34 35.01263 -102.03117 33717 ft 372 kts 277°
2026-04-25 20:34 35.01975 -102.09328 33722 ft 371 kts 277°
2026-04-25 20:35 35.02685 -102.15553 33721 ft 370 kts 277°
2026-04-25 20:35 35.03392 -102.21775 33799 ft 370 kts 277°
2026-04-25 20:36 35.04097 -102.28016 33802 ft 370 kts 277°
2026-04-25 20:36 35.04792 -102.34200 33802 ft 370 kts 277°
2026-04-25 20:37 35.05490 -102.40427 33796 ft 370 kts 276°
2026-04-25 20:37 35.06067 -102.45608 33787 ft 370 kts 276°
2026-04-25 20:38 35.06759 -102.51840 33777 ft 370 kts 276°
2026-04-25 20:38 35.07447 -102.58071 33759 ft 370 kts 276°
2026-04-25 20:39 35.08134 -102.64318 33750 ft 370 kts 276°
2026-04-25 20:39 35.08702 -102.69503 33764 ft 370 kts 276°
2026-04-25 20:40 35.09492 -102.76761 33742 ft 371 kts 276°
2026-04-25 20:40 35.10169 -102.83010 33741 ft 372 kts 276°
2026-04-25 20:41 35.10845 -102.89278 33741 ft 372 kts 276°
2026-04-25 20:41 35.11513 -102.95504 33734 ft 372 kts 276°
2026-04-25 20:42 35.12182 -103.01772 33730 ft 372 kts 276°
2026-04-25 20:42 35.12848 -103.08042 33716 ft 372 kts 276°
2026-04-25 20:43 35.13511 -103.14309 33707 ft 372 kts 276°
2026-04-25 20:43 35.14170 -103.20573 33708 ft 371 kts 276°
2026-04-25 20:44 35.14820 -103.26788 33694 ft 371 kts 276°
2026-04-25 20:44 35.15471 -103.33045 33694 ft 371 kts 276°
2026-04-25 20:45 35.16116 -103.39271 33784 ft 371 kts 276°
2026-04-25 20:45 35.16762 -103.45546 33813 ft 371 kts 276°
2026-04-25 20:46 35.17404 -103.51805 33829 ft 371 kts 276°
2026-04-25 20:46 35.18022 -103.58073 33835 ft 371 kts 273°
2026-04-25 20:47 35.18027 -103.64366 33832 ft 371 kts 268°
2026-04-25 20:47 35.17787 -103.70623 33834 ft 371 kts 267°
2026-04-25 20:48 35.17494 -103.76924 33803 ft 371 kts 267°
2026-04-25 20:48 35.17200 -103.83219 33769 ft 371 kts 267°
2026-04-25 20:49 35.16911 -103.89520 33732 ft 371 kts 267°
2026-04-25 20:49 35.16623 -103.95824 33695 ft 371 kts 267°
2026-04-25 20:50 35.16335 -104.02087 33659 ft 371 kts 267°
2026-04-25 20:50 35.16040 -104.08400 33636 ft 372 kts 267°
2026-04-25 20:51 35.15742 -104.14712 33638 ft 371 kts 267°
2026-04-25 20:51 35.15441 -104.21017 33641 ft 371 kts 267°
2026-04-25 20:52 35.15188 -104.26260 33630 ft 371 kts 267°
2026-04-25 20:52 35.14831 -104.33591 33657 ft 371 kts 267°
2026-04-25 20:53 35.14520 -104.39890 33687 ft 371 kts 267°
2026-04-25 20:53 35.14206 -104.46190 33722 ft 371 kts 267°
2026-04-25 20:54 35.13889 -104.52496 33743 ft 371 kts 266°
2026-04-25 20:54 35.13568 -104.58793 33760 ft 371 kts 266°
2026-04-25 20:55 35.13246 -104.65059 33770 ft 371 kts 266°
2026-04-25 20:55 35.12919 -104.71360 33766 ft 371 kts 266°
2026-04-25 20:56 35.12588 -104.77667 33753 ft 371 kts 266°
2026-04-25 20:56 35.12256 -104.83929 33730 ft 371 kts 266°
2026-04-25 20:57 35.11919 -104.90229 33701 ft 371 kts 266°
2026-04-25 20:57 35.11579 -104.96530 33682 ft 372 kts 266°
2026-04-25 20:58 35.11237 -105.02830 33656 ft 372 kts 266°
2026-04-25 20:58 35.10981 -105.09145 33678 ft 372 kts 268°
2026-04-25 20:59 35.10792 -105.15458 33677 ft 372 kts 268°
2026-04-25 20:59 35.10604 -105.21761 33698 ft 372 kts 268°
2026-04-25 21:00 35.10473 -105.25944 33698 ft 372 kts 268°
2026-04-25 21:01 35.10090 -105.37529 33725 ft 373 kts 267°
2026-04-25 21:01 35.09874 -105.43877 33724 ft 374 kts 267°
2026-04-25 21:02 35.09656 -105.50218 33744 ft 374 kts 267°
2026-04-25 21:02 35.09435 -105.56528 33743 ft 374 kts 267°
2026-04-25 21:03 35.09209 -105.62879 33743 ft 374 kts 267°
2026-04-25 21:03 35.08981 -105.69211 33755 ft 372 kts 267°
2026-04-25 21:04 35.08751 -105.75511 33758 ft 371 kts 267°
2026-04-25 21:04 35.08517 -105.81806 33760 ft 371 kts 267°
2026-04-25 21:05 35.08281 -105.88097 33761 ft 371 kts 267°
2026-04-25 21:05 35.08043 -105.94352 33762 ft 371 kts 267°
2026-04-25 21:06 35.07800 -106.00636 33759 ft 371 kts 267°
2026-04-25 21:06 35.07553 -106.06948 33766 ft 372 kts 267°
2026-04-25 21:07 35.07303 -106.13248 33765 ft 372 kts 267°
2026-04-25 21:07 35.07050 -106.19561 33775 ft 372 kts 267°
2026-04-25 21:08 35.06793 -106.25866 33797 ft 372 kts 267°
2026-04-25 21:08 35.06533 -106.32176 33830 ft 372 kts 266°
2026-04-25 21:09 35.06140 -106.41576 33870 ft 370 kts 266°
2026-04-25 21:09 35.05873 -106.47848 33904 ft 369 kts 266°
2026-04-25 21:10 35.05604 -106.54108 33916 ft 369 kts 266°
2026-04-25 21:10 35.05331 -106.60367 33915 ft 369 kts 266°
2026-04-25 21:11 35.05055 -106.66624 33914 ft 369 kts 266°
2026-04-25 21:11 35.04776 -106.72882 33911 ft 368 kts 266°
2026-04-25 21:12 35.04497 -106.79092 33934 ft 366 kts 266°
2026-04-25 21:12 35.04339 -106.84246 33926 ft 366 kts 268°
2026-04-25 21:13 35.04318 -106.88357 33696 ft 366 kts 269°
2026-04-25 21:13 35.04326 -106.91459 33689 ft 366 kts 269°
2026-04-25 21:13 35.04345 -106.97677 33700 ft 366 kts 269°
2026-04-25 21:14 35.04345 -107.03899 33693 ft 366 kts 269°
2026-04-25 21:14 35.04330 -107.10118 33697 ft 366 kts 269°
2026-04-25 21:15 35.04309 -107.16301 33693 ft 366 kts 269°
2026-04-25 21:15 35.04284 -107.22521 33709 ft 366 kts 269°
2026-04-25 21:16 35.04257 -107.28737 33702 ft 366 kts 268°
2026-04-25 21:16 35.04227 -107.34968 33716 ft 367 kts 268°
2026-04-25 21:17 35.04194 -107.41191 33719 ft 367 kts 268°
2026-04-25 21:17 35.04158 -107.47405 33720 ft 366 kts 268°
2026-04-25 21:18 35.04119 -107.53579 33721 ft 366 kts 268°
2026-04-25 21:18 35.04076 -107.59793 33725 ft 366 kts 268°
2026-04-25 21:19 35.04031 -107.66017 33732 ft 366 kts 268°
2026-04-25 21:19 35.03982 -107.72238 33731 ft 366 kts 268°
2026-04-25 21:20 35.03948 -107.76355 33738 ft 366 kts 268°
2026-04-25 21:20 35.03875 -107.84641 33739 ft 367 kts 268°
2026-04-25 21:21 35.03816 -107.90868 33740 ft 367 kts 268°
2026-04-25 21:21 35.03755 -107.97106 33738 ft 367 kts 268°
2026-04-25 21:22 35.03690 -108.03334 33743 ft 367 kts 268°
2026-04-25 21:22 35.03622 -108.09560 33746 ft 367 kts 268°
2026-04-25 21:23 35.03550 -108.15747 33749 ft 367 kts 268°
2026-04-25 21:23 35.03476 -108.21972 33749 ft 367 kts 268°
2026-04-25 21:24 35.03398 -108.28206 33756 ft 367 kts 268°
2026-04-25 21:24 35.03317 -108.34434 33752 ft 367 kts 268°
2026-04-25 21:25 35.03233 -108.40660 33752 ft 367 kts 268°
2026-04-25 21:25 35.03147 -108.46881 33754 ft 366 kts 267°
2026-04-25 21:26 35.03072 -108.52038 33750 ft 365 kts 267°
2026-04-25 21:26 35.02980 -108.58229 33760 ft 365 kts 267°
2026-04-25 21:27 35.02884 -108.64408 33762 ft 364 kts 267°
2026-04-25 21:27 35.02785 -108.70599 33787 ft 364 kts 267°
2026-04-25 21:28 35.02684 -108.76763 33770 ft 367 kts 267°
2026-04-25 21:28 35.02578 -108.83012 33767 ft 368 kts 266°
2026-04-25 21:29 35.02469 -108.89250 33767 ft 368 kts 266°
2026-04-25 21:29 35.02357 -108.95487 33763 ft 368 kts 266°
2026-04-25 21:30 35.02241 -109.01729 33764 ft 368 kts 266°
2026-04-25 21:30 35.02143 -109.06910 33758 ft 368 kts 266°
2026-04-25 21:31 35.02001 -109.14200 33773 ft 368 kts 266°
2026-04-25 21:31 35.01876 -109.20450 33764 ft 368 kts 266°
2026-04-25 21:32 35.01747 -109.26699 33780 ft 368 kts 266°
2026-04-25 21:32 35.01616 -109.32945 33780 ft 368 kts 266°
2026-04-25 21:33 35.01481 -109.39190 33786 ft 368 kts 266°
2026-04-25 21:33 35.01344 -109.45400 33793 ft 368 kts 266°
2026-04-25 21:34 35.01203 -109.51640 33780 ft 367 kts 266°
2026-04-25 21:34 35.01059 -109.57865 33784 ft 367 kts 266°
2026-04-25 21:35 35.00912 -109.64090 33782 ft 367 kts 266°
2026-04-25 21:35 35.00762 -109.70306 33801 ft 367 kts 266°
2026-04-25 21:36 35.00609 -109.76524 33794 ft 367 kts 266°
2026-04-25 21:36 35.00452 -109.82744 33804 ft 367 kts 266°
2026-04-25 21:37 35.00320 -109.87912 33799 ft 367 kts 266°
2026-04-25 21:37 35.00131 -109.95143 33808 ft 367 kts 266°
2026-04-25 21:38 34.99823 -110.01346 33804 ft 366 kts 262°
2026-04-25 21:38 34.99227 -110.07506 33810 ft 366 kts 262°
2026-04-25 21:39 34.98575 -110.13654 33812 ft 366 kts 261°
2026-04-25 21:39 34.97911 -110.19820 33814 ft 367 kts 261°
2026-04-25 21:40 34.97246 -110.26007 33819 ft 368 kts 261°
2026-04-25 21:40 34.96582 -110.32196 33823 ft 368 kts 261°
2026-04-25 21:41 34.95916 -110.38382 33820 ft 368 kts 261°
2026-04-25 21:41 34.95251 -110.44527 33823 ft 368 kts 261°
2026-04-25 21:42 34.94578 -110.50709 33836 ft 368 kts 261°
2026-04-25 21:42 34.93902 -110.56891 33834 ft 368 kts 261°
2026-04-25 21:43 34.93222 -110.63081 33942 ft 368 kts 261°
2026-04-25 21:43 34.92539 -110.69268 33947 ft 368 kts 261°
2026-04-25 21:44 34.91857 -110.75412 33947 ft 368 kts 261°
2026-04-25 21:45 34.90823 -110.84681 33930 ft 368 kts 261°
2026-04-25 21:45 34.90124 -110.90912 33913 ft 372 kts 261°
2026-04-25 21:46 34.89418 -110.97166 33895 ft 373 kts 261°
2026-04-25 21:46 34.88709 -111.03427 33884 ft 373 kts 261°
2026-04-25 21:47 34.87996 -111.09687 33860 ft 373 kts 261°
2026-04-25 21:47 34.87281 -111.15945 33869 ft 372 kts 261°
2026-04-25 21:48 34.86574 -111.22104 33863 ft 368 kts 260°
2026-04-25 21:48 34.85862 -111.28271 33872 ft 367 kts 260°
2026-04-25 21:49 34.85148 -111.34426 33860 ft 367 kts 260°
2026-04-25 21:49 34.84430 -111.40590 33865 ft 367 kts 260°
2026-04-25 21:50 34.83710 -111.46746 33858 ft 367 kts 260°
2026-04-25 21:50 34.82986 -111.52903 33867 ft 367 kts 260°
2026-04-25 21:51 34.82265 -111.59019 33945 ft 367 kts 260°
2026-04-25 21:51 34.81535 -111.65172 33971 ft 367 kts 260°
2026-04-25 21:52 34.80803 -111.71321 33982 ft 367 kts 260°
2026-04-25 21:52 34.80067 -111.77474 33976 ft 367 kts 260°
2026-04-25 21:53 34.79330 -111.83609 33984 ft 365 kts 260°
2026-04-25 21:53 34.78594 -111.89715 33972 ft 364 kts 260°
2026-04-25 21:54 34.77859 -111.95773 33942 ft 364 kts 260°
2026-04-25 21:54 34.77118 -112.01866 33916 ft 364 kts 260°
2026-04-25 21:55 34.76373 -112.07958 33884 ft 364 kts 260°
2026-04-25 21:55 34.75624 -112.14059 33885 ft 364 kts 259°
2026-04-25 21:56 34.74874 -112.20156 33919 ft 365 kts 259°
2026-04-25 21:56 34.74120 -112.26244 33938 ft 367 kts 259°
2026-04-25 21:57 34.73357 -112.32380 33966 ft 367 kts 259°
2026-04-25 21:57 34.72591 -112.38513 33980 ft 367 kts 259°
2026-04-25 21:58 34.71822 -112.44645 33980 ft 367 kts 259°
2026-04-25 21:58 34.71051 -112.50778 33801 ft 368 kts 259°
2026-04-25 21:59 34.70271 -112.56940 33800 ft 369 kts 259°
2026-04-25 21:59 34.69489 -112.63102 33793 ft 369 kts 259°
2026-04-25 22:00 34.68310 -112.72346 33793 ft 369 kts 259°
2026-04-25 22:00 34.67525 -112.78471 33795 ft 369 kts 259°
2026-04-25 22:01 34.66734 -112.84617 33791 ft 367 kts 258°
2026-04-25 22:01 34.66077 -112.89700 33791 ft 366 kts 258°
2026-04-25 22:02 34.65148 -112.96853 33794 ft 366 kts 258°
2026-04-25 22:02 34.64358 -113.02917 33786 ft 366 kts 258°
2026-04-25 22:03 34.63559 -113.09022 33786 ft 366 kts 258°
2026-04-25 22:03 34.62754 -113.15147 33777 ft 367 kts 258°
2026-04-25 22:04 34.61945 -113.21278 33775 ft 368 kts 258°
2026-04-25 22:04 34.61139 -113.27369 33766 ft 368 kts 258°
2026-04-25 22:05 34.60322 -113.33516 33765 ft 368 kts 258°
2026-04-25 22:05 34.59502 -113.39657 33762 ft 368 kts 258°
2026-04-25 22:06 34.58686 -113.45748 33761 ft 368 kts 258°
2026-04-25 22:06 34.57861 -113.51881 33760 ft 368 kts 258°
2026-04-25 22:07 34.57173 -113.56973 33761 ft 368 kts 258°
2026-04-25 22:07 34.56218 -113.64138 33751 ft 368 kts 258°
2026-04-25 22:08 34.55522 -113.70307 33752 ft 368 kts 259°
2026-04-25 22:08 34.54843 -113.76467 33754 ft 368 kts 259°
2026-04-25 22:09 34.54161 -113.82601 33746 ft 370 kts 259°
2026-04-25 22:09 34.53470 -113.88780 33743 ft 370 kts 259°
2026-04-25 22:10 34.52776 -113.94958 33747 ft 369 kts 259°
2026-04-25 22:10 34.52080 -114.01130 33748 ft 369 kts 259°
2026-04-25 22:11 34.51212 -114.07257 33767 ft 367 kts 254°
2026-04-25 22:11 34.49962 -114.13274 33766 ft 368 kts 253°
2026-04-25 22:12 34.48693 -114.19249 33782 ft 368 kts 253°
2026-04-25 22:12 34.47840 -114.23267 33782 ft 368 kts 253°
2026-04-25 22:13 34.46140 -114.31265 33787 ft 368 kts 253°
2026-04-25 22:13 34.44861 -114.37265 33732 ft 368 kts 253°
2026-04-25 22:14 34.43796 -114.42256 33716 ft 368 kts 253°
2026-04-25 22:14 34.42510 -114.48260 33717 ft 368 kts 253°
2026-04-25 22:15 34.41220 -114.54274 33730 ft 369 kts 253°
2026-04-25 22:16 34.39277 -114.63298 33715 ft 368 kts 253°
2026-04-25 22:16 34.37989 -114.69263 33723 ft 369 kts 253°
2026-04-25 22:17 34.36686 -114.75280 33735 ft 369 kts 253°
2026-04-25 22:17 34.35382 -114.81287 33736 ft 368 kts 253°
2026-04-25 22:18 34.34079 -114.87275 33724 ft 368 kts 253°
2026-04-25 22:18 34.32779 -114.93230 33732 ft 368 kts 252°
2026-04-25 22:19 34.31467 -114.99222 33724 ft 369 kts 252°
2026-04-25 22:19 34.30150 -115.05216 33740 ft 369 kts 252°
2026-04-25 22:20 34.28827 -115.11227 33737 ft 370 kts 252°
2026-04-25 22:20 34.27502 -115.17233 33741 ft 370 kts 252°
2026-04-25 22:21 34.26187 -115.23238 33738 ft 370 kts 253°
2026-04-25 22:21 34.24904 -115.29258 33746 ft 370 kts 253°
2026-04-25 22:22 34.23620 -115.35286 33744 ft 370 kts 253°
2026-04-25 22:22 34.22341 -115.41271 33754 ft 370 kts 253°
2026-04-25 22:23 34.21050 -115.47292 33746 ft 370 kts 253°
2026-04-25 22:23 34.19757 -115.53311 33764 ft 370 kts 252°
2026-04-25 22:24 34.18461 -115.59329 33753 ft 370 kts 252°
2026-04-25 22:24 34.17161 -115.65347 33774 ft 370 kts 252°
2026-04-25 22:25 34.16143 -115.71453 33771 ft 373 kts 258°
2026-04-25 22:25 34.15534 -115.77681 33791 ft 374 kts 259°
2026-04-25 22:26 34.14936 -115.83945 33801 ft 375 kts 259°
2026-04-25 22:26 34.14334 -115.90178 33825 ft 375 kts 259°
2026-04-25 22:27 34.13724 -115.96440 33859 ft 376 kts 259°
2026-04-25 22:27 34.13112 -116.02703 33850 ft 376 kts 259°
2026-04-25 22:28 34.12497 -116.08971 33855 ft 376 kts 259°
2026-04-25 22:28 34.11880 -116.15235 33857 ft 375 kts 259°
2026-04-25 22:29 34.11263 -116.21460 33845 ft 376 kts 259°
2026-04-25 22:29 34.10952 -116.24584 33156 ft 376 kts 259°
2026-04-25 22:29 34.10637 -116.27739 32269 ft 379 kts 259°
2026-04-25 22:30 34.09976 -116.34080 31162 ft 386 kts 259°
2026-04-25 22:30 34.09629 -116.37327 30686 ft 392 kts 259°
2026-04-25 22:30 34.09279 -116.40596 30187 ft 395 kts 259°
2026-04-25 22:30 34.09045 -116.42779 29853 ft 397 kts 259°
2026-04-25 22:31 34.08567 -116.47228 29119 ft 401 kts 259°
2026-04-25 22:31 34.08211 -116.50554 28756 ft 394 kts 259°
2026-04-25 22:31 34.07869 -116.53746 28419 ft 382 kts 259°
2026-04-25 22:31 34.07530 -116.56895 27987 ft 374 kts 259°
2026-04-25 22:32 34.07216 -116.59981 27487 ft 368 kts 259°
2026-04-25 22:32 34.06926 -116.63053 26790 ft 368 kts 260°
2026-04-25 22:32 34.06645 -116.66100 26290 ft 364 kts 260°
2026-04-25 22:32 34.06364 -116.69128 25837 ft 362 kts 260°
2026-04-25 22:33 34.06084 -116.72142 25386 ft 361 kts 260°
2026-04-25 22:33 34.05803 -116.75151 24944 ft 360 kts 260°
2026-04-25 22:33 34.05523 -116.78143 24492 ft 358 kts 259°
2026-04-25 22:33 34.05243 -116.81130 24044 ft 357 kts 259°
2026-04-25 22:34 34.04964 -116.84101 23587 ft 356 kts 259°
2026-04-25 22:34 34.04685 -116.87057 23112 ft 354 kts 259°
2026-04-25 22:34 34.04362 -116.89993 22650 ft 351 kts 258°
2026-04-25 22:34 34.03995 -116.92897 22211 ft 349 kts 257°
2026-04-25 22:35 34.03621 -116.95779 21766 ft 347 kts 257°
2026-04-25 22:35 34.03253 -116.98607 21342 ft 345 kts 257°
2026-04-25 22:35 34.02882 -117.01459 20905 ft 343 kts 257°
2026-04-25 22:35 34.02528 -117.04297 20486 ft 342 kts 258°
2026-04-25 22:36 34.02191 -117.07123 20065 ft 340 kts 258°
2026-04-25 22:36 34.01857 -117.09939 19623 ft 338 kts 258°
2026-04-25 22:36 34.01525 -117.12743 19209 ft 336 kts 258°
2026-04-25 22:36 34.01195 -117.15525 18790 ft 335 kts 258°
2026-04-25 22:37 34.00864 -117.18300 18377 ft 333 kts 258°
2026-04-25 22:37 34.00535 -117.21061 17948 ft 332 kts 258°
2026-04-25 22:37 34.00208 -117.23803 17524 ft 329 kts 258°
2026-04-25 22:37 33.99882 -117.26524 17127 ft 326 kts 258°
2026-04-25 22:38 33.99559 -117.29223 16730 ft 324 kts 258°
2026-04-25 22:38 33.99241 -117.31902 16324 ft 321 kts 258°
2026-04-25 22:38 33.98928 -117.34563 15924 ft 319 kts 258°
2026-04-25 22:38 33.98622 -117.37168 15520 ft 317 kts 258°
2026-04-25 22:39 33.98314 -117.39784 15114 ft 313 kts 258°
2026-04-25 22:39 33.98009 -117.42379 14723 ft 310 kts 258°
2026-04-25 22:39 33.97705 -117.44944 14340 ft 309 kts 258°
2026-04-25 22:39 33.97439 -117.47474 14092 ft 300 kts 262°
2026-04-25 22:40 33.97552 -117.49982 13621 ft 303 kts 274°
2026-04-25 22:40 33.98052 -117.52453 13162 ft 303 kts 279°
2026-04-25 22:40 33.98637 -117.54902 12777 ft 304 kts 280°
2026-04-25 22:40 33.99229 -117.57347 12392 ft 304 kts 280°
2026-04-25 22:41 33.99816 -117.59789 12007 ft 303 kts 281°
2026-04-25 22:41 34.00397 -117.62227 11628 ft 303 kts 281°
2026-04-25 22:41 34.00976 -117.64666 11243 ft 302 kts 281°
2026-04-25 22:41 34.01550 -117.67097 10864 ft 301 kts 282°
2026-04-25 22:42 34.02009 -117.69530 10546 ft 292 kts 272°
2026-04-25 22:42 34.02006 -117.71918 10292 ft 280 kts 263°
2026-04-25 22:42 34.01813 -117.74204 9933 ft 276 kts 261°
2026-04-25 22:42 34.01583 -117.76496 9425 ft 274 kts 261°
2026-04-25 22:43 34.01354 -117.78759 9077 ft 270 kts 261°
2026-04-25 22:43 34.01129 -117.81005 8737 ft 270 kts 261°
2026-04-25 22:43 34.00907 -117.83245 8391 ft 269 kts 261°
2026-04-25 22:43 34.00686 -117.85484 8056 ft 267 kts 261°
2026-04-25 22:44 34.00468 -117.87699 7708 ft 265 kts 261°
2026-04-25 22:44 34.00255 -117.89867 7484 ft 255 kts 262°
2026-04-25 22:44 34.00050 -117.91961 7184 ft 249 kts 262°
2026-04-25 22:44 33.99845 -117.94037 6762 ft 249 kts 262°
2026-04-25 22:45 33.99642 -117.96101 6435 ft 247 kts 262°
2026-04-25 22:45 33.99440 -117.98155 6117 ft 247 kts 262°
2026-04-25 22:45 33.99241 -118.00170 5988 ft 234 kts 262°
2026-04-25 22:45 33.99067 -118.02052 5677 ft 226 kts 263°
2026-04-25 22:46 33.98910 -118.03899 5385 ft 218 kts 263°
2026-04-25 22:46 33.98742 -118.05672 5158 ft 206 kts 261°
2026-04-25 22:46 33.98582 -118.07345 5017 ft 199 kts 261°
2026-04-25 22:46 33.98419 -118.09010 4981 ft 199 kts 261°
2026-04-25 22:47 33.98253 -118.10646 4937 ft 194 kts 261°
2026-04-25 22:47 33.98080 -118.12253 4770 ft 192 kts 260°
2026-04-25 22:47 33.97914 -118.13850 4517 ft 191 kts 260°
2026-04-25 22:47 33.97755 -118.15418 4229 ft 190 kts 261°
2026-04-25 22:48 33.97594 -118.16988 3947 ft 188 kts 259°
2026-04-25 22:48 33.97435 -118.18535 3682 ft 184 kts 260°
2026-04-25 22:48 33.97279 -118.20053 3445 ft 181 kts 260°
2026-04-25 22:48 33.97125 -118.21556 3196 ft 180 kts 261°
2026-04-25 22:49 33.96972 -118.23045 2969 ft 179 kts 261°
2026-04-25 22:49 33.96819 -118.24537 2718 ft 179 kts 260°
2026-04-25 22:49 33.96667 -118.26012 2464 ft 172 kts 261°
2026-04-25 22:49 33.96531 -118.27363 2223 ft 154 kts 258°
2026-04-25 22:50 33.96407 -118.28574 2039 ft 138 kts 260°
2026-04-25 22:50 33.96291 -118.29695 1874 ft 134 kts 259°
2026-04-25 22:50 33.96176 -118.30803 1700 ft 133 kts 260°
2026-04-25 22:50 33.96063 -118.31901 1514 ft 132 kts 260°
2026-04-25 22:51 33.95950 -118.33000 1332 ft 133 kts 260°
2026-04-25 22:51 33.95839 -118.34085 1154 ft 131 kts 259°
2026-04-25 22:51 33.95727 -118.35177 978 ft 131 kts 259°
2026-04-25 22:51 33.95615 -118.36267 783 ft 130 kts 258°
2026-04-25 22:52 33.95503 -118.37356 596 ft 131 kts 260°
2026-04-25 22:52 33.95394 -118.38450 438 ft 133 kts 260°
2026-04-25 22:52 33.95286 -118.39543 233 ft 130 kts 260°
2026-04-25 22:52 33.95210 -118.40247 128 ft 126 kts 258°
2026-04-25 22:53 33.95082 -118.41450 97 ft 78 kts 263°
2026-04-25 22:53 33.95036 -118.41899 97 ft 39 kts 262°
2026-04-25 22:53 33.94963 -118.42160 97 ft 21 kts 231°
2026-04-25 22:53 33.94858 -118.42268 99 ft 18 kts 200°
2026-04-25 22:54 33.94764 -118.42278 100 ft 13 kts 174°
2026-04-25 22:54 33.94691 -118.42242 97 ft 11 kts 114°
2026-04-25 22:54 33.94688 -118.42190 100 ft 0 kts 84°
2026-04-25 22:54 33.94688 -118.42182 97 ft 2 kts 83°
2026-04-25 22:55 33.94690 -118.42167 100 ft 4 kts 83°
2026-04-25 22:55 33.94694 -118.42132 97 ft 5 kts 83°
2026-04-25 22:55 33.94702 -118.42049 97 ft 16 kts 83°
2026-04-25 22:55 33.94717 -118.41895 97 ft 20 kts 83°
2026-04-25 22:56 33.94734 -118.41722 97 ft 21 kts 83°
2026-04-25 22:56 33.94751 -118.41560 97 ft 17 kts 83°
2026-04-25 22:56 33.94770 -118.41418 97 ft 17 kts 72°
2026-04-25 22:56 33.94794 -118.41275 97 ft 18 kts 83°
2026-04-25 22:57 33.94809 -118.41128 98 ft 18 kts 83°
2026-04-25 22:57 33.94824 -118.40981 99 ft 18 kts 83°
2026-04-25 22:57 33.94839 -118.40834 98 ft 18 kts 82°
2026-04-25 22:57 33.94855 -118.40681 97 ft 19 kts 83°
2026-04-25 22:58 33.94871 -118.40526 97 ft 19 kts 83°
2026-04-25 22:58 33.94887 -118.40373 97 ft 14 kts 83°
2026-04-25 22:58 33.94847 -118.40290 98 ft 13 kts 159°
2026-04-25 22:58 33.94761 -118.40261 97 ft 11 kts 173°
2026-04-25 22:59 33.94682 -118.40250 97 ft 11 kts 173°
2026-04-25 22:59 33.94650 -118.40237 96 ft 6 kts 128°
2026-04-25 22:59 33.94646 -118.40189 97 ft 6 kts 86°
2026-04-25 22:59 33.94647 -118.40176 97 ft 0 kts 86°
2026-04-25 23:00 33.94647 -118.40173 97 ft 0 kts 86°